Temperature
15 15 15 15 15 15 15 15 15 15 15 15 15 15 15 15 15 15 15 15 15 15 15 15 15 15 14 14 14 14 14 14 14 14 14 14 14 14 14 14 14 15 15
15 15 15 15 15 15 15 15 15 15 15 15 15 14 14 14 14 14 14 14 14 14 14 14 14 14 14 14 14 14 14 14 14 14 14 14 14 14 14 14 14 14 14
15 15 15 15 15 15 15 15 15 15 15 14 14 14 14 14 14 14 14 14 14 14 14 14 14 14 14 14 14 14 14 14 14 14 14 14 14 14 14 14 14 14 14
15 15 15 15 15 15 15 15 14 15 14 14 14 14 14 14 14 14 14 14 14 14 14 14 14 13 13 13 13 13 14 13 14 14 14 14 14 14 14 14 14 14 14
15 15 15 15 15 15 14 14 14 14 14 14 14 14 14 14 14 14 14 14 14 14 14 14 14 13 13 13 13 13 13 13 14 13 14 14 14 14 14 14 14 14 14
15 15 15 15 15 15 14 14 14 14 14 14 14 14 14 14 14 13 13 13 13 13 13 13 13 13 13 13 13 13 13 13 14 14 14 14 14 14 14 14 14 14 13
15 15 15 15 14 14 14 14 14 14 14 14 14 14 14 13 13 13 13 13 13 13 13 13 13 13 13 13 13 13 13 13 13 13 13 13 13 13 14 14 13 13 13
15 15 15 15 14 14 14 14 14 14 14 14 14 14 13 13 13 13 13 13 13 13 13 13 13 13 13 13 13 13 13 13 13 13 13 13 13 13 13 13 13 13 13
15 15 15 14 14 14 14 14 14 14 14 14 14 14 13 13 13 13 13 13 13 13 13 13 13 13 13 13 13 13 13 13 13 13 13 13 13 13 13 13 13 13 13
15 15 14 14 14 14 14 14 14 14 14 14 14 14 14 13 13 13 12 13 13 13 13 13 13 13 13 13 13 13 13 13 13 13 13 13 13 13 13 13 12 12 12
15 15 14 14 14 14 14 14 14 14 14 14 14 14 14 13 13 13 13 13 13 12 12 13 13 13 13 13 13 13 13 13 13 13 12 12 12 12 12 12 12 12 12
15 15 14 14 14 14 14 14 14 14 14 14 14 14 14 14 14 13 13 13 12 12 12 12 12 13 13 13 13 13 13 13 13 12 12 12 12 12 12 12 12 12 12
15 15 15 15 14 14 14 14 14 14 14 14 14 14 14 13 13 13 13 13 12 12 12 12 12 12 12 13 13 13 13 13 13 13 12 12 12 12 12 12 12 12 12
14 15 15 15 14 14 14 14 14 14 14 14 14 14 13 13 13 13 13 13 13 12 12 12 12 12 12 12 12 12 12 12 12 12 12 12 12 12 12 12 12 12 12
14 14 14 14 14 14 14 14 14 14 14 14 14 13 13 13 13 13 13 13 13 13 12 12 12 12 12 12 12 12 12 12 12 12 12 12 12 12 12 12 12 11 11
14 14 14 14 14 14 14 14 14 14 14 14 14 13 13 13 13 13 13 13 13 13 12 12 12 12 12 12 12 12 12 12 12 12 12 12 12 12 12 11 11 11 11
14 14 14 14 14 14 14 14 13 13 13 13 13 13 13 13 13 13 13 13 13 13 13 12 12 12 12 12 12 12 12 12 12 12 11 11 12 12 11 11 11 11 11
13 13 13 13 13 13 13 13 13 13 13 13 13 13 13 13 13 13 13 13 13 12 12 12 12 12 12 12 12 12 12 11 11 11 11 11 11 11 11 11 11 11 11
13 13 13 13 13 13 13 13 13 13 13 13 13 13 13 13 13 13 13 13 12 12 12 12 12 12 12 12 12 12 11 11 11 11 11 11 11 11 11 11 11 11 11
13 13 13 13 13 13 13 13 13 13 13 13 13 13 13 12 12 12 12 12 12 12 12 12 12 12 12 12 11 11 11 11 11 11 11 11 11 11 10 10 10 10 10
13 13 13 13 13 13 13 13 13 13 13 13 13 13 13 12 12 12 12 12 12 12 12 12 12 12 12 11 11 11 11 11 11 11 11 11 10 10 10 10 10 10 10
12 12 12 12 12 12 12 12 12 12 12 12 12 12 12 12 12 12 12 12 12 12 12 12 12 12 11 11 11 11 11 11 11 10 10 10 10 10 10 10 10 10 10
12 12 12 12 12 12 12 12 12 12 12 12 12 12 12 12 12 12 12 12 12 12 11 11 12 11 11 11 11 11 11 10 10 10 10 10 10 10 10 10 10 9 9
12 12 12 12 12 12 12 12 12 12 12 12 12 12 12 12 12 12 12 11 11 11 11 11 11 11 11 11 10 10 10 10 10 10 10 10 10 10 10 9 9 9 9
12 12 11 11 11 11 11 11 11 11 11 11 11 11 11 12 12 11 11 11 11 11 11 11 11 11 10 10 10 10 10 10 10 10 10 9 9 9 9 9 9 9 9
11 11 11 11 11 11 11 11 11 11 11 11 11 11 11 11 11 11 11 11 11 11 11 11 10 10 10 10 10 10 10 10 9 9 9 9 9 9 9 9 9 9 8
Wind_Speed
3 4 4 5 6 7 6 6 7 7 7 8 8 8 8 8 9 9 9 11 11 10 10 10 9 9 9 8 8 8 8 8 8 7 7 7 8 8 8 8 8 8 8
3 3 4 4 5 6 6 6 6 6 6 6 7 7 7 8 8 9 9 10 12 11 10 9 9 8 8 8 7 7 7 7 7 7 8 7 8 8 8 8 9 9 8
4 4 3 3 4 6 7 7 6 6 5 5 5 6 6 7 7 8 9 9 9 11 11 10 9 9 8 8 7 7 7 6 6 7 7 7 7 7 8 8 8 8 7
5 5 3 3 5 6 5 4 4 5 4 4 4 4 5 5 6 7 8 8 8 8 10 10 9 8 8 8 7 7 7 6 6 6 7 7 7 7 7 8 8 8 7
5 5 3 4 6 5 4 4 3 4 4 4 4 4 4 4 5 5 6 7 7 8 8 9 9 8 8 7 7 7 6 6 6 6 6 7 7 7 7 7 8 8 8
6 6 4 4 5 4 3 3 4 4 3 3 5 5 4 4 4 4 5 5 6 7 7 7 7 7 8 7 7 7 6 6 5 5 7 7 7 7 7 7 7 7 7
5 6 4 4 4 3 3 4 4 4 3 2 3 3 4 4 4 4 4 4 5 5 6 7 6 6 6 7 8 8 7 7 6 6 7 7 6 6 6 6 6 6 6
4 5 5 3 3 3 4 3 3 3 1 1 2 2 2 4 4 4 3 3 4 4 5 5 6 6 6 6 7 8 7 7 8 8 7 7 6 6 6 6 5 5 5
3 4 5 4 4 4 4 3 3 4 2 0 1 3 3 1 1 3 3 3 3 3 3 4 5 5 5 5 6 7 7 7 7 7 6 6 5 5 6 5 5 5 5
2 3 4 4 4 3 3 3 3 2 3 2 1 2 2 3 2 1 3 3 3 2 3 3 4 4 4 4 4 5 5 6 6 5 5 5 5 5 5 5 4 4 4
2 2 3 4 3 3 3 3 3 2 2 3 2 2 2 2 2 2 0 2 3 2 2 2 3 3 4 3 2 3 4 4 5 4 4 4 4 3 4 4 4 4 4
1 1 2 2 3 2 3 3 3 3 2 2 2 2 2 2 2 2 2 1 1 2 2 2 2 3 3 3 2 2 3 3 4 4 4 3 3 3 3 3 3 3 4
0 1 0 1 1 2 3 3 2 2 3 3 3 2 2 2 2 3 3 1 0 1 2 2 2 2 2 3 2 2 2 2 3 3 3 3 3 2 2 2 3 4 4
2 1 1 1 1 1 2 2 2 2 2 2 3 2 2 2 2 3 3 3 1 1 1 2 2 1 2 2 2 2 2 2 2 2 2 2 2 3 2 2 3 3 4
1 1 1 1 1 1 1 2 1 1 2 2 2 2 2 1 2 2 3 4 4 2 1 2 1 1 1 1 2 3 2 2 2 2 2 2 2 3 3 3 4 3 4
1 1 1 1 1 1 1 2 1 0 2 1 1 2 2 1 2 2 2 2 2 3 2 2 1 1 1 1 3 2 2 3 3 3 2 2 2 2 2 3 3 4 3
1 2 2 2 1 1 1 1 1 1 2 1 1 2 2 2 2 2 2 3 2 3 3 1 0 1 1 1 3 3 3 3 3 2 2 2 2 2 2 2 3 3 3
2 2 2 2 2 1 1 1 1 1 2 2 1 2 2 2 2 2 3 3 3 2 3 2 0 1 0 0 1 2 2 2 2 2 1 1 1 1 2 1 2 2 2
2 2 2 2 2 2 2 1 1 1 1 2 2 2 2 3 2 2 3 2 2 2 2 3 1 0 0 1 1 2 2 2 2 2 1 1 1 1 1 1 2 2 3
3 2 2 2 2 2 2 2 1 1 1 1 1 2 2 3 4 3 3 3 3 3 3 3 2 0 0 0 1 1 1 1 2 2 2 1 0 0 0 1 1 2 2
3 2 2 1 1 1 2 2 2 2 1 1 0 1 1 2 4 4 3 4 4 3 3 3 2 1 0 1 1 1 1 1 2 1 1 1 1 1 1 1 1 1 2
2 2 2 2 1 2 2 3 3 2 2 1 1 1 1 1 2 2 4 5 6 6 5 3 2 3 3 2 2 2 1 0 2 1 0 1 0 1 2 2 2 2 2
2 2 2 2 3 3 3 3 4 3 2 2 2 1 1 1 1 1 2 3 4 5 7 6 4 4 4 4 3 2 2 2 2 1 1 1 0 1 2 3 3 3 3
3 3 2 2 2 3 3 3 4 3 2 2 2 3 3 2 2 2 2 2 1 2 4 4 5 5 4 5 5 4 4 2 0 0 2 1 1 1 2 3 3 3 4
2 2 2 2 2 3 3 3 3 2 2 2 2 2 3 3 3 4 3 3 2 2 2 4 4 3 3 4 5 3 3 2 1 1 1 2 1 1 1 2 3 3 4
3 2 2 2 3 3 3 3 3 2 2 2 2 2 4 4 4 5 4 4 4 3 2 1 1 1 2 3 5 5 4 3 2 2 2 2 1 1 1 2 1 2 2
Wind_Direction
76 73 69 68 71 79 82 81 79 74 71 68 67 67 62 59 57 53 49 56 62 66 70 72 71 70 69 69 68 70 73 73 71 74 82 85 87 85 87 87 88 88 90
98 90 79 75 74 80 84 85 82 78 71 70 64 64 63 60 56 54 50 49 51 55 63 68 68 65 64 65 66 68 74 78 75 76 79 85 88 93 90 88 84 83 89
110 104 94 89 89 91 89 87 82 79 73 69 61 60 63 61 58 52 50 47 43 46 51 57 62 60 60 61 64 66 69 77 83 81 79 81 85 87 84 85 83 82 83
108 108 100 96 102 100 97 90 83 80 71 65 59 50 53 55 55 55 53 48 46 43 42 46 52 54 54 56 60 63 66 72 82 89 87 85 87 87 87 86 85 82 82
117 114 107 108 110 102 97 101 81 90 88 75 68 55 45 44 44 53 51 47 47 45 42 41 42 42 47 50 56 59 62 69 75 87 92 95 94 92 90 88 85 83 83
129 119 113 111 112 105 95 95 93 76 84 85 79 61 45 43 45 45 43 44 42 43 45 43 37 33 39 46 50 51 53 57 70 86 94 95 100 99 96 92 89 87 86
132 126 124 118 116 115 120 118 108 90 77 82 80 53 32 41 45 37 38 42 35 38 46 42 40 39 34 39 44 46 48 56 70 85 91 91 99 104 102 99 93 92 92
134 139 140 134 127 119 116 123 118 107 93 74 102 93 37 14 18 25 29 39 25 29 38 37 40 40 39 40 40 43 47 59 66 77 82 86 91 97 103 101 97 95 92
132 144 148 142 142 143 153 161 150 135 144 90 82 131 133 179 341 357 13 26 23 26 22 28 34 35 39 46 40 39 41 53 61 66 74 81 87 92 99 99 98 100 95
104 139 151 146 150 153 161 179 166 150 145 153 91 64 121 148 140 15 348 1 16 22 11 20 24 25 33 44 43 42 44 45 53 60 67 74 80 86 90 94 94 95 95
75 112 144 152 162 168 170 170 161 162 159 160 159 137 97 77 107 146 249 330 353 352 2 7 14 12 13 25 36 43 44 42 43 45 55 64 71 84 86 89 94 99 99
26 56 127 155 175 177 179 182 178 176 176 167 167 161 158 154 164 153 175 245 314 325 351 8 7 358 357 5 16 30 28 36 41 43 45 53 59 66 70 81 102 110 105
5 317 104 178 188 195 188 177 170 185 183 179 184 185 179 179 161 152 148 167 197 319 345 355 346 348 356 5 3 9 15 32 42 47 45 50 55 56 55 56 83 103 103
213 214 148 139 168 175 176 172 179 197 184 190 194 180 173 186 173 165 160 152 132 356 347 307 334 354 353 5 6 19 23 22 26 36 36 48 58 63 64 63 75 93 97
202 161 135 102 87 127 137 147 165 199 177 191 190 176 170 181 170 169 158 159 155 172 244 277 299 321 343 19 23 40 33 35 36 43 43 53 67 70 74 76 74 79 91
184 152 139 138 109 91 111 125 117 162 152 173 167 152 158 161 145 142 146 143 142 156 187 236 242 288 9 44 36 46 34 26 34 47 56 70 87 88 89 90 88 80 78
175 174 176 163 144 121 109 116 131 134 146 146 141 161 174 154 145 144 135 136 136 139 156 242 287 360 49 40 31 44 30 21 19 40 57 70 84 92 95 94 104 99 90
169 169 158 155 159 153 145 139 164 156 164 179 189 161 171 150 148 149 146 153 161 159 155 171 279 22 23 13 37 34 23 17 8 17 46 60 74 93 99 106 110 110 108
167 155 149 161 174 179 173 184 180 180 185 199 191 181 182 150 159 159 153 157 163 156 144 155 173 169 9 48 51 22 15 1 353 350 8 23 87 106 103 105 117 129 121
168 176 182 187 198 198 185 175 162 173 188 194 187 188 185 175 181 176 169 170 153 141 138 144 154 165 217 23 87 52 347 348 337 357 13 5 329 207 163 154 150 149 144
173 175 165 184 205 197 201 179 177 179 177 190 194 202 198 181 187 181 175 173 160 153 149 150 160 141 176 162 198 204 209 323 323 322 347 349 6 1 332 274 213 201 192
166 164 178 189 208 239 221 184 165 171 178 182 218 255 227 181 195 190 185 180 172 170 175 169 173 188 217 209 187 179 168 116 295 304 126 311 20 281 290 260 251 241 235
174 186 198 199 228 247 234 209 183 167 173 194 210 212 212 216 187 183 177 171 182 184 181 178 186 206 205 202 177 180 187 192 224 244 145 271 309 276 278 270 258 244 235
191 203 211 216 233 257 236 216 193 177 177 202 216 211 202 216 197 159 155 155 187 211 201 192 197 212 212 195 186 190 193 185 277 263 148 200 268 263 298 284 271 251 244
208 214 209 208 221 257 237 209 182 175 197 230 239 220 200 217 212 165 155 169 204 262 232 204 204 214 220 198 173 145 142 146 246 265 184 182 220 268 298 286 283 270 245
215 210 217 221 222 243 245 212 182 178 204 235 253 245 219 211 207 184 180 182 202 232 225 210 201 223 218 203 188 184 182 180 200 245 217 184 196 170 291 294 309 295 266
Height
1529 1529 1530 1530 1530 1530 1530 1530 1531 1531 1531 1531 1531 1532 1532 1532 1532 1532 1532 1532 1532 1532 1532 1532 1532 1532 1531 1531 1531 1532 1532 1532 1533 1533 1534 1535 1536 1536 1537 1537 1538 1538 1539
1531 1531 1531 1532 1532 1532 1532 1532 1533 1533 1533 1533 1533 1533 1534 1534 1534 1534 1534 1534 1534 1533 1533 1533 1533 1533 1532 1532 1532 1532 1532 1532 1533 1533 1534 1535 1536 1537 1538 1538 1538 1539 1539
1533 1533 1533 1533 1533 1534 1534 1534 1534 1534 1534 1535 1535 1535 1535 1535 1536 1536 1536 1535 1535 1535 1535 1534 1534 1533 1533 1533 1533 1533 1533 1533 1533 1534 1534 1535 1536 1537 1538 1538 1539 1539 1540
1534 1534 1534 1534 1535 1535 1535 1536 1536 1536 1536 1536 1536 1536 1537 1537 1537 1537 1537 1537 1537 1536 1536 1535 1535 1535 1534 1534 1533 1533 1533 1533 1533 1533 1534 1535 1536 1537 1538 1539 1539 1540 1540
1535 1535 1536 1536 1536 1537 1537 1537 1537 1537 1537 1537 1537 1538 1538 1538 1538 1538 1538 1538 1538 1537 1537 1536 1536 1535 1535 1534 1534 1534 1533 1533 1532 1532 1533 1534 1536 1537 1538 1539 1539 1540 1540
1536 1536 1537 1537 1537 1538 1538 1538 1538 1539 1539 1539 1539 1539 1539 1539 1539 1539 1539 1539 1539 1538 1538 1537 1536 1536 1535 1535 1534 1534 1533 1531 1530 1530 1532 1534 1536 1537 1538 1539 1539 1540 1541
1537 1537 1537 1538 1538 1538 1539 1539 1539 1539 1539 1540 1540 1540 1540 1540 1540 1540 1540 1540 1539 1539 1538 1537 1537 1536 1536 1535 1535 1534 1533 1531 1529 1529 1532 1534 1536 1537 1538 1539 1540 1540 1541
1537 1537 1538 1538 1538 1539 1539 1539 1540 1540 1540 1540 1540 1540 1540 1542 1540 1540 1540 1540 1540 1539 1539 1538 1537 1537 1536 1536 1535 1534 1533 1533 1532 1532 1533 1535 1536 1537 1538 1539 1540 1540 1541
1537 1538 1538 1538 1539 1539 1539 1540 1540 1540 1540 1541 1541 1541 1541 1541 1541 1541 1540 1540 1540 1540 1539 1539 1538 1537 1537 1536 1536 1535 1535 1535 1534 1535 1535 1536 1537 1538 1538 1539 1540 1540 1540
1537 1538 1538 1538 1539 1539 1539 1540 1540 1540 1540 1540 1540 1540 1541 1541 1541 1541 1541 1541 1540 1540 1540 1539 1539 1538 1537 1537 1537 1536 1536 1536 1536 1536 1536 1536 1537 1538 1539 1539 1540 1540 1540
1537 1537 1538 1538 1539 1539 1539 1539 1540 1540 1540 1540 1540 1540 1540 1540 1540 1541 1540 1541 1540 1540 1540 1539 1539 1539 1538 1538 1538 1537 1537 1537 1537 1537 1537 1537 1538 1538 1539 1539 1539 1540 1540
1536 1537 1537 1538 1538 1538 1539 1539 1539 1539 1539 1539 1539 1539 1539 1539 1539 1540 1539 1539 1539 1540 1540 1540 1539 1539 1539 1538 1538 1538 1538 1538 1537 1537 1537 1537 1537 1538 1539 1539 1539 1539 1540
1535 1535 1536 1536 1537 1537 1538 1538 1538 1538 1538 1538 1539 1539 1539 1539 1539 1539 1539 1539 1539 1539 1539 1540 1540 1539 1539 1539 1539 1538 1538 1538 1538 1538 1537 1537 1537 1538 1538 1538 1538 1539 1539
1533 1534 1535 1535 1535 1536 1536 1536 1536 1537 1537 1537 1537 1537 1537 1537 1537 1538 1538 1538 1538 1539 1539 1539 1539 1539 1539 1539 1539 1539 1538 1538 1538 1537 1537 1537 1537 1537 1537 1537 1537 1537 1537
1532 1533 1533 1534 1534 1534 1534 1534 1535 1535 1535 1535 1536 1536 1536 1536 1536 1536 1537 1537 1538 1537 1538 1538 1539 1539 1539 1539 1539 1539 1538 1538 1537 1537 1537 1536 1536 1536 1536 1536 1536 1536 1536
1531 1531 1532 1532 1532 1532 1532 1532 1533 1533 1533 1534 1534 1534 1534 1534 1535 1535 1535 1536 1536 1537 1536 1537 1537 1538 1538 1538 1538 1538 1538 1537 1537 1536 1536 1536 1536 1535 1535 1535 1535 1535 1535
1529 1529 1530 1530 1530 1530 1530 1530 1531 1531 1531 1532 1532 1532 1532 1533 1533 1533 1534 1534 1535 1535 1535 1536 1536 1537 1537 1537 1537 1537 1537 1536 1536 1536 1535 1535 1535 1534 1534 1534 1534 1534 1534
1527 1527 1528 1528 1528 1528 1528 1529 1529 1529 1529 1529 1530 1530 1531 1531 1531 1532 1532 1533 1533 1533 1534 1534 1535 1535 1536 1536 1536 1536 1536 1535 1535 1534 1534 1534 1534 1533 1533 1533 1533 1533 1533
1524 1525 1526 1526 1526 1526 1527 1527 1527 1527 1527 1527 1528 1528 1529 1529 1530 1530 1530 1531 1531 1532 1532 1533 1533 1534 1534 1534 1534 1534 1534 1534 1533 1533 1533 1532 1532 1532 1532 1532 1532 1532 1531
1522 1523 1523 1524 1524 1524 1525 1525 1525 1525 1525 1526 1526 1526 1527 1527 1528 1528 1528 1529 1529 1530 1530 1531 1531 1532 1532 1532 1532 1532 1532 1532 1532 1532 1531 1531 1531 1530 1530 1530 1530 1530 1530
1519 1520 1521 1521 1522 1522 1522 1522 1523 1523 1523 1523 1524 1524 1525 1525 1526 1526 1527 1527 1527 1528 1528 1528 1529 1530 1530 1530 1530 1530 1530 1530 1530 1530 1529 1529 1529 1529 1528 1528 1528 1528 1528
1516 1517 1518 1518 1519 1519 1520 1520 1520 1520 1521 1521 1521 1522 1523 1523 1524 1524 1525 1525 1526 1526 1526 1526 1527 1527 1528 1528 1528 1528 1528 1527 1527 1528 1527 1527 1527 1527 1527 1526 1526 1526 1526
1514 1514 1515 1515 1516 1517 1517 1517 1518 1518 1518 1518 1519 1519 1520 1521 1521 1522 1522 1523 1523 1523 1524 1525 1525 1525 1525 1525 1526 1526 1526 1526 1525 1526 1525 1524 1525 1524 1525 1524 1524 1524 1524
1511 1512 1512 1513 1513 1514 1514 1514 1515 1515 1515 1516 1516 1517 1517 1518 1518 1519 1519 1520 1520 1520 1521 1521 1522 1522 1523 1523 1523 1524 1523 1523 1523 1523 1523 1522 1522 1522 1522 1522 1522 1522 1522
1508 1509 1509 1510 1510 1511 1512 1512 1512 1512 1513 1513 1514 1514 1514 1515 1515 1516 1516 1516 1516 1517 1518 1518 1519 1519 1520 1520 1520 1521 1520 1520 1520 1520 1520 1520 1519 1519 1519 1520 1520 1520 1519
1505 1506 1506 1507 1507 1508 1509 1509 1509 1509 1509 1510 1510 1511 1511 1512 1512 1512 1513 1513 1513 1513 1514 1515 1515 1516 1516 1517 1517 1517 1517 1517 1517 1517 1517 1517 1516 1517 1516 1516 1517 1517 1516